www.pogodaiklimat.ru

Погода и климат >> Архив погоды >> Россия >> Якутия >> Андрюшкино


ПОГОДА в Андрюшкино

  • Прогноз погоды в Андрюшкино
  • Монитор погоды в Андрюшкино

АРХИВ ПОГОДЫ в Андрюшкино

Время (UTC), дата Ветер
(напр.,м/с)
 
Видим.   Явления Облачность Т
(С)
Тd
(С)
f
(%)
Тe
(С)
Тes
(С)
Комфортность P
(гПа)
Po
(гПа)
Тmin
(С)
Tmax
(С)
R
(мм)
R24
(мм)
S
(см)
09 19.04 З 2 50 км {метель} ясно -10.0 -17.3 55 -14 -14 1022.6 1020.5 -12.5 -9.5 0.0
12 19.04 ЮЗ 3 50 км {метель} ясно -15.8 -20.0 70 -23 -23 1023.3 1021.1
15 19.04 Ю 2 50 км ясно -17.2 -21.4 70 -23 -23 1023.8 1021.6
18 19.04 Ю 2 50 км ясно -18.4 -21.7 75 -24 -24 1023.9 1021.7
21 19.04 Ю 2 50 км 1/0
[Ci fib]
-18.0 -21.4 75 -23 -21 1024.0 1021.8 -20.2 29
00 20.04 штиль 0 50 км 8/0
[Ci fib]
-12.4 -18.6 60 -12 -6 1023.8 1021.6
03 20.04 С 2 50 км 4/0
[Ci fib]
-11.0 -17.2 60 -15 -10 1023.6 1021.5
06 20.04 С 1 50 км ясно -9.5 -15.8 60 -12 -8 1023.8 1021.7
09 20.04 С 1 50 км ясно -11.5 -16.8 65 -14 -13 1024.5 1022.4 -7.3
12 20.04 штиль 0 50 км ясно -17.5 -20.1 80 -18 -18 1025.4 1023.2
15 20.04 ЮВ 1 50 км ясно -20.6 -23.1 80 -24 -24 1025.5 1023.3
18 20.04 штиль 0 50 км ясно -22.7 -24.6 84 -23 -23 1025.9 1023.6
21 20.04 штиль 0 50 км 3/0
[Ci fib]
-18.7 -21.3 80 -19 -16 1026.2 1024.0 -24.0 29
00 21.04 В 1 50 км 3/0
[Ci fib]
-9.1 -16.5 55 -11 -4 1025.6 1023.5
03 21.04 В 2 50 км 6/0
[Ci fib]
-7.1 -15.8 50 -11 -5 1024.9 1022.8
06 21.04 В 4 50 км 4/0
[Ci fib]
-6.2 -14.3 53 -12 -11 1023.7 1021.6
09 21.04 В 4 50 км 6/0
[Cs]
-9.6 -16.0 60 -16 -16 1023.1 1021.0 -5.8
12 21.04 В 4 50 км 6/0
[Cs]
-11.3 -16.6 65 -18 -18 1022.4 1020.3
15 21.04 В 5 50 км 1/0
[Ci fib]
-13.6 -18.8 65 -22 -22 1021.2 1019.0
18 21.04 В 4 50 км 1/0
[Ci fib]
-13.9 -19.1 65 -21 -21 1019.6 1017.4
21 21.04 В 5 50 км ясно -10.6 -16.9 60 -18 -17 1018.7 1016.6 -14.3 29
00 22.04 В 6 50 км 1/0
[Ci fib]
-6.4 -13.4 58 -14 -12 1016.9 1014.8
03 22.04 В 6 50 км 4/0
[Ci fib]
-4.2 -11.6 56 -11 -9 1014.9 1012.8
06 22.04 В 7 50 км 4/0
[Ci fib]
-3.5 -10.0 61 -11 -10 1013.6 1011.5
09 22.04 В 5 50 км 8/0
[Cs]
-4.6 -10.7 62 -11 -11 1013.2 1011.1 -3.2
12 22.04 В 4 50 км 8/0
[Cs]
-4.6 -11.2 60 -11 -11 1012.7 1010.6
15 22.04 В 4 50 км 6/0
[Ci fib]
-6.0 -12.8 59 -12 -12 1011.7 1009.6
18 22.04 В 4 50 км 6/0
[Ci fib]
-6.3 -12.8 60 -13 -12 1011.3 1009.2
21 22.04 В 4 50 км 10/0
[Ac As]
-4.6 -10.3 64 -11 -10 1011.2 1009.1 -7.0 29
00 23.04 ЮВ 3 50 км 10/0
[Ac As Ci fib]
-0.6 -6.2 66 -5 -2 1010.7 1008.7
03 23.04 ЮВ 3 50 км 6/0
[Ac trans Ci fib]
+3.0 -3.8 61 -1 +4 1010.3 1008.3
06 23.04 ЮВ 4 50 км 8/0
[Ci fib]
+4.0 -3.2 59 0 +2 1010.1 1008.1
09 23.04 Ю 2 50 км 8/0
[Ac As Ci fib]
+2.6 -3.6 64 -0 0 1010.6 1008.6 +4.4
12 23.04 В 2 50 км 8/0
[Ac As Ci fib]
-1.1 -4.7 77 -5 -5 1010.7 1008.7
15 23.04 В 3 50 км 8/0
[Ci fib]
-1.2 -4.5 78 -6 -6 1010.4 1008.4
18 23.04 ЮВ 4 50 км 8/0
[As trans Ci fib]
-2.6 -5.2 82 -9 -8 1010.5 1008.4
21 23.04 В 3 50 км 9/0
[As trans Cs]
-2.2 -5.8 76 -7 -6 1010.1 1008.1 -3.5 26
00 24.04 ЮВ 3 50 км 8/0
[As trans Cs]
+1.2 -4.0 68 -3 +1 1009.9 1007.9
03 24.04 ЮВ 3 50 км 9/0
[Cs]
+3.0 -3.8 61 -1 +4 1009.5 1007.5
06 24.04 ЮВ 2 50 км 8/0
[Ac trans Cs]
+3.2 -3.6 61 +1 +3 1009.4 1007.4
09 24.04 ЮВ 2 50 км 9/0
[Ac As Cs]
+2.8 -3.0 66 0 0 1009.4 1007.4 +3.8
12 24.04 Ю 1 50 км 9/0
[Ac As Ci fib]
+1.0 -3.2 74 -1 -1 1009.6 1007.6
15 24.04 штиль 0 50 км 8/0
[Ac As Ci fib]
-2.5 -4.1 89 -4 -4 1009.3 1007.2
18 24.04 В 1 50 км 8/0
[Ac As]
-5.5 -6.6 92 -8 -8 1009.3 1007.2
21 24.04 штиль 0 50 км 9/6 570 м
[Sc Ac As]
-3.9 -5.4 89 -5 -4 1009.3 1007.2 -6.2 26
00 25.04 Ю 1 50 км 9/8 600 м
[Sc Ac trans]
+0.5 -3.5 75 -1 -0 1008.6 1007.6
03 25.04 СЗ 1 50 км {снег} 8/6 630 м
[Sc Ac trans]
+1.4 -1.1 83 -0 +2 1009.8 1007.8
06 25.04 штиль 0 50 км {снег} 9/4 600 м
[Sc Ac trans]
+1.5 -1.6 80 +1 +2 1010.1 1008.1
09 25.04 В 1 50 км 6/3 600 м
[Sc Ac trans]
-2.0 -3.5 89 -4 -4 1010.4 1008.4 +2.4 0.0
12 25.04 В 2 50 км 8/0
[Ac trans]
-1.8 -2.9 92 -6 -6 1010.7 1008.7
15 25.04 В 1 50 км 9/9 630 м
[Sc]
-1.2 -2.5 91 -3 -3 1010.2 1008.2
18 25.04 СВ 1 50 км 1/1 600 м
[Sc]
-7.3 -8.2 93 -10 -10 1009.8 1007.7
21 25.04 СВ 1 50 км ясно -7.0 -8.3 90 -9 -6 1009.4 1007.3 -9.2 24
00 26.04 С 1 50 км 1/0
[Ac trans]
-3.5 -5.3 87 -6 +2 1008.8 1006.7
03 26.04 В 2 50 км ясно +3.0 -2.1 69 0 +7 1007.3 1005.3
06 26.04 СВ 3 50 км 3/1 600 м
[Sc Ac trans]
+2.4 -1.5 75 -2 +1 1006.2 1004.2

 

Местоположение метеостанции Андрюшкино (Якутия, Россия): широта 69.17 долгота 154.50 высота над уровнем моря 16 м.

В архиве по умолчанию представлена погода в Андрюшкино за последнюю неделю. Архивные данные за месяц целиком и за предыдущие месяцы, начиная с января 2011 года, Вы можете получить, выбрав интересующий диапазон дат из раскрывающегося списка и нажав кнопку "Ввод!".


*Определитесь, кто Вы:
робот инопланетянин человек

Внимание! Время в таблицах - всемирное. Для получения местного времени необходимо прибавить поправку, которая равна 11 ч.

Смотрите также архив погоды в соседних городах и на ближайших метеорологических станциях:

Погода в Колымской (Якутия, Россия) (171 км)
Погода в Среднеколымске (Якутия, Россия) (194 км)
Погода в Черском (Якутия, Россия) (276 км)
Погода в Константиновской (Чукотка, Россия) (290 км)
Погода в Анюйске (Чукотка, Россия) (296 км)
Погода в Чокурдахе (Якутия, Россия) (302 км)
Погода в Бухте Амбарчик (Чукотка, Россия) (309 км)
Погода в Белой Горе (Якутия, Россия) (340 км)
Погода в Островном (Чукотка, Россия) (406 км)
Погода в Зырянке (Якутия, Россия) (412 км)

Пояснения к столбцам:

Ветер - указаны скорость ветра в м/с - средняя за 10 мин, порывы в срок и между сроками (в фигурных скобках) и направление, откуда дует ветер: С - северный, СВ - северо-восточный, В - восточный, ЮВ - юго-восточный, Ю - южный, ЮЗ - юго-западный, З - западный, СЗ - северо-западный.
Видимость - горизонтальная дальность видимости в метрах или километрах. При видимости от 1 до 10 км при отсутствии осадков обычно наблюдается дымка, при ухудшении видимости до 1 км и менее - туман. В сухую погоду видимость может ухудшаться дымом, пылью или мглою.
Явления - указаны атмосферные явления, наблюдавшиеся в срок или в последний час перед сроком; фигурными скобками обозначены явления, наблюдавшиеся между сроками (за 1-3 часа до срока); квадратными скобками обозначены град или гололедные отложения с указанием их диаметра в мм.
Облачность - указаны через наклонную черту общая и нижняя облачность в баллах и высота нижней границы облаков в метрах; квадратными скобками обозначены формы облаков: Ci - перистые, Cs - перисто-слоистые, Cc - перисто-кучевые, Ac - высококучевые, As - высокослоистые, Sc - слоисто-кучевые, Ns - слоисто-дождевые, Cu - кучевые, Cb - кучево-дождевые. Подробнее классификацию облаков см. в Атласе облаков (PDF).
T - Температура воздуха - температура, измеренная на высоте 2 м над землей.
Td - Температура точки росы - температура, при понижении до которой содержащийся в воздухе водяной пар достигнет насыщения.
f - Относительная влажность воздуха - влажноcть воздуха, измеренная на высоте 2 м над землей.
Te - Эффективная температура - температура, которую ощущает одетый по сезону человек в тени. Характеристика душности погоды. При расчете учитывается влияние влажности воздуха и скорости ветра на теплоощущения человека.
Tes - Эффективная температура на солнце - температура, которую ощущает человек, с поправкой на солнечный нагрев. Характеристика знойности погоды. Зависит от высоты солнца над горизонтом, облачности и скорости ветра. Ночью, в пасмурную погоду, а также при ветре 12 м/с и более поправка равна нулю.
P - Атмосферное давление - приведенное к уровню моря атмосферное давление.
Po - Атмосферное давление - измеренное на уровне метеостанции атмосферное давление.
Tmin - Минимальная температура - минимум температуры воздуха на высоте 2 м над землей.
Tmax - Максимальная температура - максимум температуры воздуха на высоте 2 м над землей.
R - Количество осадков - Количество выпавших осадков за период времени, мм. При наведении курсора мыши на число - период времени, за который выпало указанное количество осадков.
R24 - Количество осадков - Количество выпавших осадков за 24 часа, мм.
S - Снежный покров - Высота снежного покрова, см. При наведении курсора мыши на число - состояние снежного покрова и степень покрытия местности в баллах.